Regional Weather Roundup
Issued by NWS

Home | Current Version | Previous Version | Text Only | Print | Product List | Glossary On
Versions: 1 2 3 4 5 6 7 8 9 10 11 12 13 14 15 16 17 18 19 20 21 22 23 24 25 26 27 28 29 30 31 32 33 34 35 36 37 38 39 40 41 42 43 44 45 46 47 48 49 50
000
ASUS43 KLMK 270210
RWRKY
KENTUCKY REGIONAL WEATHER ROUNDUP
NATIONAL WEATHER SERVICE LOUISVILLE KY
1000 PM EDT SUN MAR 26 2017

NOTE "FAIR" INDICATES FEW OR NO CLOUDS BELOW 12,000 FEET
WITH NO SIGNIFICANT WEATHER AND/OR OBSTRUCTIONS TO VISIBILITY.

KYZ001>023-026-027-061>063-070>075-270300-
WESTERN AND SOUTH CENTRAL KENTUCKY

CITY           SKY/WX    TMP DP  RH WIND       PRES   REMARKS
PADUCAH        CLOUDY    56  50  80 CALM      29.98R
HENDERSON      CLOUDY    52  45  76 CALM      29.97R
OWENSBORO      CLOUDY    57  48  72 W5        29.99R
HOPKINSVILLE   PTCLDY    63  50  63 CALM      29.99R
BOWLING GREEN  MOCLDY    67  52  58 SW3       29.99R
GLASGOW        LGT RAIN  63  54  72 NW5       30.00R
$$

KYZ024-025-028>034-038-045-046-053-270300-
NORTH CENTRAL KENTUCKY

CITY           SKY/WX    TMP DP  RH WIND       PRES   REMARKS
LOUISVILLE/SDF PTCLDY    62  51  67 W10       29.98R
LOUISVILLE/LOU CLEAR     62  53  72 W8        29.99R
FORT KNOX      PTCLDY    58  51  78 W6        29.98R
$$

KYZ035>037-039>044-047>052-055>060-089>105-270300-
NORTHEAST KENTUCKY

CITY           SKY/WX    TMP DP  RH WIND       PRES   REMARKS
LEXINGTON      CLOUDY    61  55  81 S8        29.99R
COVINGTON      PTCLDY    56  54  93 SW6       29.96R
FRANKFORT      CLOUDY    62  53  72 NW6       29.97R
$$

KYZ054-064>069-076>088-106>120-270300-
SOUTHEAST KENTUCKY

CITY           SKY/WX    TMP DP  RH WIND       PRES   REMARKS
JACKSON        MOCLDY    59  56  89 S5        30.02R
LONDON         CLOUDY    61  56  83 S5        30.03R
SOMERSET       CLOUDY    63  52  67 SW5       30.03R
MIDDLESBORO    CLOUDY    59  55  85 CALM      30.05R
MONTICELLO     MOCLDY    64  53  67 SW10G17   30.04R
$$





USA.gov is the U.S. government's official web portal to all federal, state and local government web resources and services.